Flag for Canada Weather past 2 weeks in Quesnel, British Columbia, Canada

Now
43 °F

Clear.


Feels Like: 43 °F
Forecast: 38 / 70 °F
Wind: No wind

Location: Quesnel Airport

Current Time: Sep 15, 2014 at 2:42:09 AM

Latest Report: Sep 15, 2014 at 2:00 AM


Visibility: 9 mi

Pressure: 30.04 "Hg

Humidity: 100%

Dew point: 43 °F

Location of QuesnelLocation

Historic Weather in Quesnel — Graph

°F

Quesnel temperature yesterday

Maximum temperature yesterday: 73 °F (at 5:00 PM)
Minimum temperature yesterday: 34 °F (at 5:04 AM)
Average temperature yesterday: 48 °F

Past Weeks' High & Low Weather Summary

 TemperatureHumidityPressure
High81 °F (Sep 6, 5:00 PM)100% (Aug 31, 1:00 AM)30.58 "Hg (Aug 31, 1:00 AM)
Low25 °F (Sep 11, 4:00 AM)26% (Sep 10, 6:00 PM)29.78 "Hg (Sep 7, 8:00 PM)
Average51 °F78%30.12 "Hg
* Reported Aug 31 1:00 AM — Sep 15 1:00 AM, Quesnel, Weather by CustomWeather, © 2014

Note: Actual official high and low records may vary slightly from our data, if they occured in-between our weather recording intervals... More about our weather records

Advertising

Quesnel weather history for previous 24 hours

 ConditionsComfort  
Time TempWeatherWind HumidityBarometerVisibility
1:00 AM
Sep 15
43 °FClear.No wind100%30.04 "Hg9 mi
12:00 AM45 °FFog.2 mph100%30.03 "Hg3 mi
11:58 PM
Sep 14
43 °FFog.2 mph100%30.04 "Hg3 mi
11:00 PM46 °FClear.No wind100%30.03 "Hg9 mi
10:00 PM48 °FClear.No wind100%30.02 "Hg9 mi
9:00 PM52 °FClear.2 mph82%30.02 "Hg9 mi
8:00 PM54 °FSunny.No wind77%30.01 "Hg9 mi
7:00 PM64 °FSunny.No wind60%30.00 "Hg9 mi
6:00 PM72 °FSunny.3 mph31%30.00 "Hg9 mi
5:00 PM73 °FSunny.5 mph29%30.01 "Hg9 mi
4:00 PM72 °FSunny.No wind31%30.03 "Hg9 mi
3:00 PM72 °FSunny.2 mph33%30.04 "Hg9 mi
2:00 PM66 °FSunny.5 mph43%30.06 "Hg9 mi
1:00 PM61 °FSunny.2 mph52%30.09 "Hg9 mi
12:00 PM57 °FSunny.2 mph59%30.11 "Hg9 mi
11:01 AM50 °FSunny.2 mph82%30.14 "Hg6 mi
10:00 AM43 °FFog.3 mph100%30.16 "Hg3 mi
9:59 AM43 °FFog.No wind100%30.15 "Hg3 mi
9:00 AM41 °FFog.2 mph100%30.16 "Hg3 mi
8:53 AM41 °FFog.2 mph100%30.16 "Hg4 mi
8:04 AM37 °FFog.2 mph100%30.16 "Hg2 mi
8:00 AM37 °FFog.No wind100%30.16 "Hg1 mi
7:00 AM34 °FPassing clouds.No wind100%30.14 "Hg9 mi
6:59 AM34 °FPassing clouds.No wind100%30.13 "Hg9 mi
6:00 AM36 °FFog.No wind100%30.12 "Hg1 mi
5:04 AM34 °FFog.2 mph100%30.11 "Hg1 mi
4:00 AM36 °FPassing clouds.No wind100%30.11 "Hg9 mi
3:00 AM36 °FClear.No wind100%30.10 "Hg9 mi
2:00 AM37 °FClear.No wind100%30.09 "Hg9 mi
Weather by CustomWeather, © 2014

See weather overviewHow to use our weather pages